Temp
20 21 21 21 21 21 20 18 18 18 17 15 14 13 12 10 9 8 7 5 4 3 3 3 3 2 1 1 -0 -1 -1 -2 -2 -2 -2 -2 -2 -2 -2 -3 -3 -4 -5 -6
19 19 19 20 20 20 19 20 18 17 15 13 13 11 11 10 9 8 7 6 5 4 4 3 3 2 1 -0 -1 -1 -2 -3 -3 -3 -3 -3 -3 -3 -3 -4 -4 -5 -5 -6
18 17 18 17 19 19 20 19 18 18 15 12 12 13 12 11 10 8 6 5 4 4 3 3 2 1 -0 -1 -1 -2 -3 -3 -3 -3 -3 -3 -4 -4 -4 -5 -5 -6 -6 -7
13 15 14 18 19 20 20 18 17 15 14 13 11 9 9 9 7 6 5 4 3 3 3 3 1 0 -1 -1 -2 -3 -3 -3 -3 -3 -3 -4 -4 -5 -5 -6 -6 -7 -7 -8
12 12 15 18 18 19 19 17 15 14 12 10 8 8 6 7 6 4 3 3 3 3 3 2 1 -0 -1 -2 -3 -3 -4 -3 -3 -3 -4 -4 -5 -5 -6 -6 -7 -8 -8 -8
9 12 14 16 18 19 17 14 14 13 11 10 10 9 6 5 4 3 3 3 3 2 2 1 -1 -1 -2 -3 -3 -3 -3 -3 -3 -4 -4 -5 -5 -6 -6 -7 -8 -8 -8 -9
10 11 12 15 17 18 17 14 15 13 12 11 10 8 5 4 3 3 3 3 2 1 0 -1 -1 -1 -3 -3 -3 -3 -3 -2 -3 -4 -4 -5 -5 -6 -6 -7 -8 -8 -9 -8
11 12 13 16 17 17 13 14 12 11 9 6 5 5 4 4 3 3 3 2 1 -1 -2 -2 -2 -2 -3 -3 -3 -3 -3 -3 -3 -4 -4 -5 -5 -6 -6 -7 -8 -8 -8 -9
14 13 14 15 16 14 13 12 12 9 8 7 6 5 4 3 3 2 3 1 -0 -1 -2 -3 -3 -3 -3 -3 -3 -3 -3 -3 -4 -4 -5 -5 -5 -6 -7 -7 -8 -9 -9 -9
15 16 15 14 14 14 13 13 11 9 8 8 6 5 4 3 2 2 2 -0 -1 -2 -3 -3 -3 -3 -3 -3 -2 -3 -3 -4 -4 -5 -5 -5 -5 -6 -7 -7 -8 -9 -9 -9
14 13 13 12 13 12 11 10 10 9 9 7 5 4 3 2 2 2 -0 -1 -1 -2 -3 -3 -3 -3 -3 -3 -3 -4 -4 -4 -5 -5 -5 -5 -5 -6 -6 -8 -8 -9 -9 -9
10 13 11 12 12 11 10 9 9 8 7 6 5 4 3 2 2 0 -1 -2 -2 -3 -3 -4 -4 -4 -4 -4 -3 -4 -4 -5 -5 -5 -5 -5 -6 -6 -7 -7 -8 -9 -9 -8
11 10 10 10 11 11 9 9 8 7 6 5 4 3 2 0 0 -1 -2 -2 -3 -3 -3 -4 -4 -4 -4 -4 -4 -4 -4 -5 -5 -5 -5 -6 -6 -7 -8 -8 -9 -9 -10 -9
10 10 9 10 9 8 7 6 5 5 4 4 3 2 2 -0 -1 -1 -2 -2 -3 -3 -4 -4 -4 -4 -4 -4 -4 -4 -4 -5 -5 -5 -6 -6 -7 -8 -8 -9 -9 -10 -10 -11
9 9 8 8 7 5 5 5 3 2 1 0 1 0 0 -2 -3 -3 -3 -3 -3 -4 -4 -4 -4 -4 -4 -4 -4 -4 -5 -5 -5 -6 -6 -7 -7 -8 -8 -9 -10 -10 -11 -10
8 8 7 6 5 4 4 3 1 -1 -1 -1 -1 -1 -1 -2 -3 -3 -4 -4 -4 -4 -5 -4 -4 -4 -4 -4 -4 -5 -5 -5 -6 -6 -7 -8 -8 -8 -9 -10 -10 -11 -12 -11
5 5 6 5 4 3 3 2 1 -0 -1 -1 -2 -2 -2 -3 -4 -5 -5 -4 -4 -5 -5 -5 -5 -5 -4 -4 -4 -5 -5 -6 -6 -7 -7 -8 -8 -9 -9 -10 -10 -11 -12 -11
2 2 4 6 4 2 1 1 0 -0 -1 -1 -2 -2 -3 -4 -5 -5 -5 -5 -5 -5 -5 -5 -5 -5 -5 -5 -5 -5 -5 -6 -6 -7 -8 -8 -9 -9 -9 -10 -10 -11 -11 -11
1 1 1 4 4 2 1 -0 -0 -0 -1 -1 -1 -3 -2 -3 -4 -5 -5 -5 -5 -5 -5 -5 -5 -5 -5 -5 -5 -5 -5 -6 -7 -7 -8 -8 -9 -9 -10 -10 -10 -11 -11 -10
0 0 -0 0 1 2 -1 -2 -2 -2 -1 -2 -1 -3 -5 -4 -4 -5 -5 -5 -5 -4 -5 -5 -5 -5 -5 -5 -5 -5 -6 -6 -7 -8 -8 -9 -9 -9 -10 -10 -10 -10 -10 -10
-1 -1 -1 -1 -1 -1 -2 -2 -1 -2 -2 -2 -3 -4 -4 -5 -5 -5 -5 -5 -4 -4 -4 -5 -5 -5 -5 -5 -5 -5 -6 -6 -7 -7 -8 -9 -9 -9 -10 -10 -10 -10 -10 -10
-1 -1 -2 -2 -2 -3 -2 -2 -2 -2 -3 -3 -3 -4 -5 -5 -5 -5 -4 -4 -4 -4 -4 -5 -5 -5 -5 -5 -5 -6 -6 -7 -7 -7 -8 -8 -9 -9 -9 -9 -9 -9 -9 -10
-2 -1 -1 -2 -2 -2 -2 -2 -3 -3 -3 -3 -4 -4 -5 -5 -5 -6 -6 -4 -4 -4 -4 -4 -5 -5 -5 -5 -5 -6 -6 -7 -7 -7 -7 -8 -8 -8 -9 -9 -9 -9 -9 -9
-1 -2 -2 -3 -3 -3 -3 -3 -3 -4 -3 -4 -4 -4 -5 -5 -5 -4 -4 -4 -3 -4 -4 -5 -5 -5 -5 -5 -5 -6 -6 -6 -7 -7 -7 -8 -8 -8 -8 -8 -8 -8 -9 -9
1 -0 -1 -2 -3 -3 -2 -3 -4 -4 -4 -4 -5 -5 -5 -4 -3 -3 -3 -4 -3 -4 -4 -5 -5 -5 -5 -5 -5 -6 -6 -6 -7 -7 -8 -8 -8 -8 -8 -8 -8 -8 -8 -8
1 1 0 -0 -0 -1 -2 -3 -4 -4 -5 -5 -6 -5 -4 -4 -4 -4 -3 -3 -3 -3 -4 -4 -4 -5 -5 -6 -6 -6 -6 -7 -7 -7 -8 -8 -8 -8 -8 -8 -8 -8 -8 -8
3 2 2 1 1 -0 -1 -1 -3 -3 -4 -4 -4 -3 -4 -4 -4 -3 -3 -3 -3 -3 -3 -4 -4 -5 -5 -5 -6 -6 -6 -7 -7 -7 -7 -8 -8 -8 -8 -8 -8 -8 -8 -8
Height
826 825 824 826 827 827 834 839 849 842 841 842 845 850 857 865 873 877 882 886 889 892 893 893 894 896 896 895 894 894 893 891 889 887 882 876 872 868 863 860 855 851 847 842
833 830 830 830 828 827 830 829 833 835 843 843 844 853 860 864 869 874 880 885 888 891 893 894 895 896 896 894 895 893 893 891 889 886 882 878 874 870 865 861 857 852 848 843
843 839 836 844 828 826 825 825 829 835 836 845 848 848 855 860 863 872 879 885 888 891 893 893 893 894 895 896 894 895 893 890 888 885 881 876 874 871 865 862 858 854 849 845
860 849 869 833 821 820 824 829 829 833 839 842 849 857 858 859 865 874 879 884 888 890 892 893 893 894 895 896 895 894 892 892 890 886 883 877 875 871 867 864 860 855 851 846
865 866 846 829 825 824 827 835 833 838 845 852 857 861 870 868 869 874 880 884 887 890 893 895 896 896 897 897 897 898 896 893 891 887 884 880 877 872 869 866 862 857 853 848
875 865 859 832 821 819 826 849 835 836 847 851 855 863 869 873 875 879 882 885 888 891 894 895 898 898 897 898 898 897 895 893 891 889 886 883 879 876 873 868 865 860 855 850
869 864 853 829 821 820 841 851 833 837 842 849 852 857 863 873 878 881 884 886 888 890 893 897 898 897 897 898 897 896 895 893 890 889 888 886 882 878 875 870 866 861 857 852
857 861 855 820 822 832 834 831 836 839 845 854 859 864 868 874 878 881 884 887 890 892 894 896 896 897 897 899 899 897 895 895 892 891 889 887 883 880 877 873 867 863 859 854
830 835 819 816 818 822 824 829 835 839 846 848 857 864 869 874 878 881 883 887 890 891 893 896 898 898 899 899 899 897 896 895 894 893 891 888 884 881 878 874 870 867 863 857
817 813 818 818 820 821 823 825 831 835 842 849 856 863 868 873 879 882 884 887 890 893 896 897 899 900 900 900 898 899 897 896 896 894 893 889 886 883 880 877 873 871 866 861
821 818 820 822 821 825 828 829 834 838 842 847 854 864 868 873 878 882 886 889 892 894 898 900 902 903 902 902 901 899 899 898 897 896 894 891 888 885 883 881 878 875 871 866
828 812 818 825 824 827 830 834 836 838 847 852 854 861 869 874 879 882 885 888 892 896 898 899 902 902 902 902 903 901 900 900 899 898 896 893 891 888 886 884 882 878 875 870
813 814 818 823 825 828 831 835 838 840 844 851 859 863 869 874 878 882 886 889 892 895 900 902 902 903 903 903 904 902 902 901 901 900 898 895 893 890 888 886 883 880 876 872
813 815 826 828 832 833 835 839 841 845 850 854 859 866 870 875 881 883 887 890 894 896 900 902 903 904 904 904 904 903 903 903 902 901 900 897 895 892 889 887 884 881 878 874
819 819 825 829 835 840 842 843 848 852 856 860 864 868 872 876 882 885 888 892 895 899 902 902 904 904 905 906 905 905 905 904 903 903 901 899 897 894 892 890 888 886 881 876
824 825 829 834 839 843 846 850 852 859 862 866 869 873 876 879 882 887 890 893 896 899 902 904 905 904 905 907 907 907 906 906 905 904 903 901 899 896 895 893 891 888 885 882
829 835 835 839 842 846 848 850 854 860 865 868 872 874 878 881 885 888 892 896 898 900 902 904 905 906 906 907 908 908 908 907 907 906 905 903 901 899 898 896 894 892 890 887
831 833 836 837 841 846 851 854 857 862 865 870 872 875 878 882 885 889 893 898 899 902 902 903 905 906 907 909 909 909 909 909 908 907 907 905 903 902 901 899 897 895 893 890
837 838 839 838 841 846 852 856 860 862 867 871 872 876 879 882 885 890 893 896 899 901 902 903 904 906 908 909 910 910 910 910 910 909 908 907 905 905 903 901 900 898 896 893
839 840 842 844 847 848 854 858 862 865 868 870 871 875 878 882 885 889 893 896 899 902 902 903 904 906 907 909 910 911 911 911 910 910 910 908 907 906 905 904 902 900 898 896
842 844 846 848 851 853 855 859 863 865 868 872 872 875 877 880 885 888 893 896 898 901 901 902 904 906 907 908 910 911 911 911 911 910 910 909 909 908 907 905 904 902 901 899
846 848 849 851 853 855 859 863 866 867 869 872 873 875 877 881 884 888 891 894 898 900 900 902 904 905 907 908 909 911 911 911 911 910 909 909 909 909 907 906 905 904 903 901
851 851 853 855 857 860 862 865 867 868 868 870 872 874 878 880 882 885 888 893 896 899 900 901 903 904 906 907 909 910 910 910 910 910 909 909 909 908 908 906 906 904 903 902
851 853 855 858 860 862 864 866 868 867 868 870 871 874 878 880 882 884 888 891 893 896 898 900 901 903 904 906 907 908 908 908 909 908 908 908 908 908 907 906 905 905 904 902
851 854 857 858 860 861 863 865 867 866 867 868 870 873 876 878 880 883 886 889 891 893 895 897 899 901 902 903 904 905 905 906 906 907 906 906 907 907 906 906 905 904 903 902
852 854 855 855 855 858 861 862 863 864 866 868 869 870 873 876 879 882 885 886 888 890 892 894 895 897 899 900 901 902 902 903 903 904 904 904 904 904 904 904 904 903 903 902
851 852 853 853 856 857 858 859 860 861 863 864 865 868 871 874 877 880 882 883 884 886 888 890 892 893 895 896 897 898 899 899 900 900 900 901 901 902 902 902 901 901 901 900
Wind_Speed
2 0 0 2 4 3 5 5 5 5 5 6 13 13 12 13 12 12 10 9 7 7 10 9 8 9 10 11 11 11 13 15 17 17 20 24 23 24 24 24 22 23 20 23
3 6 4 2 4 3 3 3 6 3 3 1 6 8 10 14 14 12 10 9 8 10 12 9 9 9 10 12 12 11 13 15 15 18 22 24 23 24 22 23 22 23 22 25
2 4 5 5 0 2 1 1 3 4 5 6 9 12 12 12 12 12 11 10 8 11 12 10 9 13 14 12 12 13 13 13 15 19 21 21 24 23 22 24 21 22 24 24
2 3 1 4 4 3 3 4 5 4 11 7 8 5 6 6 13 12 11 10 11 14 12 9 14 15 13 11 12 12 13 13 17 17 20 21 24 23 22 22 22 23 25 23
3 2 5 2 3 2 3 3 4 8 10 12 10 6 6 6 8 9 11 16 14 13 11 11 15 13 11 12 12 13 13 13 17 14 20 21 24 24 22 23 25 23 22 25
2 4 5 4 2 2 3 4 4 10 12 13 7 3 4 7 14 15 18 17 15 12 14 16 13 10 11 11 11 12 12 13 15 11 18 20 21 24 23 24 22 22 23 26
2 1 6 6 4 2 2 5 2 7 8 8 4 2 12 16 13 18 18 19 17 20 18 16 11 8 12 10 10 10 12 11 14 10 15 19 20 22 25 26 24 23 23 27
3 2 6 5 4 5 5 2 6 4 4 8 12 13 13 13 15 18 19 17 21 21 18 12 7 6 10 10 8 10 12 12 13 10 13 17 20 21 22 27 24 25 24 25
7 5 5 4 4 3 5 6 5 7 7 14 15 11 13 11 16 17 19 17 21 19 15 11 9 9 10 7 6 7 11 13 14 12 12 14 19 20 19 25 22 22 22 24
4 2 5 5 4 4 3 5 7 7 13 13 13 14 13 13 15 16 15 19 20 17 13 12 10 10 9 10 7 10 12 12 12 13 13 15 18 19 15 22 22 21 24 23
2 6 9 6 2 6 7 8 11 11 13 14 15 13 14 14 17 16 17 21 18 15 13 13 12 10 9 8 9 10 11 11 11 12 13 15 17 20 16 18 23 22 24 22
5 4 5 3 2 7 9 8 9 14 11 16 23 16 19 16 18 21 21 20 17 14 14 16 12 9 8 9 9 8 11 12 11 12 13 15 16 18 17 13 16 21 20 22
4 5 8 7 6 6 8 7 11 16 21 16 16 22 20 17 20 21 20 17 16 15 16 14 12 9 7 6 5 8 8 9 11 11 13 15 17 18 19 18 19 20 22 22
9 8 7 3 5 11 17 17 21 20 18 19 24 22 23 23 20 20 18 16 15 16 17 13 10 9 7 5 3 6 8 8 9 11 12 12 14 17 19 21 20 23 24 22
7 7 6 10 14 13 18 20 15 10 16 18 21 24 24 22 19 19 17 15 15 17 14 10 11 9 5 4 9 9 8 8 8 10 11 12 14 17 19 17 16 17 25 28
7 8 8 8 10 9 13 11 13 7 15 18 19 18 17 17 19 18 16 15 17 18 12 12 8 8 5 5 6 8 8 7 9 10 12 14 16 18 18 18 17 18 23 26
7 4 5 6 8 8 6 11 16 15 17 19 18 17 16 17 18 18 16 13 12 13 10 9 7 7 6 7 6 5 6 7 8 11 11 14 16 17 16 18 19 19 20 22
9 9 6 5 7 9 9 13 19 20 18 18 17 16 16 18 19 18 17 10 13 10 7 8 8 9 7 5 5 5 5 5 7 9 10 12 14 15 15 17 18 19 20 21
11 10 8 11 17 19 18 19 19 18 17 18 16 13 12 16 16 20 17 14 13 11 10 8 11 8 7 6 5 4 4 5 7 9 8 9 11 12 13 15 15 17 18 19
12 13 13 15 16 22 20 16 16 18 17 16 14 14 16 15 18 20 15 15 12 8 6 9 11 8 7 8 6 5 5 4 6 7 6 7 9 8 10 12 13 13 15 17
11 12 14 14 13 12 14 17 21 19 17 14 15 17 17 16 17 18 15 12 11 11 8 11 11 8 9 9 7 5 4 4 4 4 4 4 5 6 6 9 10 11 13 14
9 10 11 12 12 14 16 16 14 17 16 13 13 14 16 17 17 17 14 12 8 9 11 13 11 9 8 10 7 6 6 5 3 2 2 1 2 4 5 6 8 8 10 11
7 8 9 9 10 12 11 11 12 14 14 15 15 15 17 19 20 20 16 16 10 14 12 13 11 11 10 12 9 8 7 6 6 4 2 1 0 1 3 4 5 6 7 9
10 9 9 10 10 10 10 10 11 11 12 12 13 13 16 17 18 19 14 11 10 13 14 14 13 12 12 12 13 11 10 9 8 6 4 3 3 2 1 2 3 3 4 6
11 11 13 14 13 12 11 11 10 10 12 12 12 16 17 16 17 17 19 15 13 14 13 15 14 14 14 15 16 14 11 10 9 8 7 6 6 5 5 3 2 2 2 4
9 10 11 13 11 10 12 14 13 12 12 12 14 18 19 19 15 13 17 17 17 18 14 15 16 16 15 16 18 16 12 10 11 10 9 9 8 8 8 6 5 4 3 3
2 2 6 7 11 14 15 17 16 17 18 18 17 17 19 23 19 17 19 18 19 21 17 16 18 17 16 17 19 18 15 13 13 13 13 12 14 13 11 9 8 6 5 4
Wind_Direction
128 69 31 208 241 235 188 195 183 248 247 203 189 167 153 146 144 146 148 143 140 139 128 118 106 99 94 77 65 55 46 38 29 20 20 19 23 22 30 27 32 29 25 15
47 8 52 251 275 238 248 257 262 201 226 7 140 113 136 153 158 158 151 144 136 122 130 114 100 102 94 82 71 53 47 35 27 23 20 24 24 21 29 23 27 28 26 14
215 342 355 332 38 169 205 71 244 271 208 155 134 151 160 166 161 148 140 135 136 131 122 109 100 110 98 86 63 45 40 34 31 24 27 32 20 18 23 18 20 23 20 16
176 22 28 250 304 155 106 23 346 85 145 148 122 77 77 117 133 132 131 131 131 125 119 109 117 110 99 72 56 46 37 39 29 32 30 28 22 24 25 21 23 23 18 19
125 198 294 112 13 171 180 324 328 128 115 116 116 75 23 69 108 126 130 140 134 131 122 109 120 109 83 65 53 42 42 38 25 34 32 29 28 30 29 28 26 24 18 21
96 149 211 227 177 124 79 312 20 126 145 156 167 150 194 136 121 124 132 133 132 119 112 117 113 96 71 66 60 55 36 22 26 46 37 35 34 35 32 33 23 24 22 22
121 235 288 247 236 73 146 229 150 161 166 166 186 234 134 129 122 130 131 136 127 116 110 119 112 88 80 78 70 43 25 40 41 72 42 37 37 36 31 32 27 24 18 15
135 164 281 187 96 172 196 115 144 108 112 100 117 121 124 129 130 132 137 130 132 118 112 112 102 91 96 87 57 42 44 54 59 67 47 37 38 32 30 30 26 20 15 11
174 211 219 182 152 152 149 139 165 123 141 140 138 139 139 142 144 143 144 132 142 133 116 96 88 93 100 71 35 49 62 72 60 58 42 36 32 26 26 31 28 21 14 8
117 164 160 125 84 124 130 126 134 139 147 145 142 145 145 141 139 140 149 136 148 133 116 107 107 96 67 51 88 92 74 69 59 53 45 42 38 34 35 36 31 26 14 7
61 87 82 51 97 122 99 96 99 116 144 142 139 144 144 139 143 141 128 138 149 135 123 113 110 89 77 69 93 92 67 61 60 52 48 44 46 42 45 54 37 28 19 20
212 171 129 134 129 134 119 122 121 118 116 140 141 141 138 139 142 140 138 141 136 128 125 125 117 105 87 76 73 90 73 62 58 54 51 48 46 50 52 36 34 32 30 28
150 91 99 112 103 108 110 128 121 126 136 131 130 133 138 128 144 145 141 139 136 134 134 126 117 102 95 83 94 81 81 67 57 58 52 52 48 46 42 44 44 33 32 33
100 88 52 42 123 103 104 99 99 96 108 119 129 136 140 132 140 143 141 140 137 137 139 130 118 104 85 65 97 102 80 72 67 62 54 51 51 50 48 39 27 22 32 30
73 74 116 109 98 100 111 112 93 94 106 104 130 135 140 138 140 141 141 143 141 144 141 141 132 116 99 89 76 95 82 77 59 69 58 55 59 55 53 44 36 30 27 38
91 90 94 118 120 121 111 102 109 105 109 120 128 136 139 140 140 145 147 152 153 154 143 145 145 129 86 149 104 90 82 73 64 76 64 63 64 60 55 51 44 39 34 31
101 92 108 118 133 141 133 129 133 138 136 136 138 140 138 140 143 146 150 144 155 159 164 167 157 151 112 126 126 103 99 86 76 76 72 67 66 62 60 58 54 47 42 39
85 82 62 130 132 120 110 124 136 143 142 150 148 147 148 157 160 158 156 157 155 166 175 185 178 163 150 142 133 128 122 99 90 82 78 73 68 63 62 63 58 55 50 47
78 72 60 103 132 128 134 140 146 146 149 153 149 159 175 171 167 164 161 165 173 178 180 173 170 172 167 158 149 143 130 114 110 87 85 77 73 67 63 62 60 55 51 48
76 77 85 100 130 135 131 138 144 151 155 155 151 160 163 169 169 170 175 184 197 196 198 191 183 177 169 168 168 167 161 133 114 102 93 74 66 70 66 62 59 54 52 50
86 92 94 103 112 136 152 159 155 157 162 167 167 174 173 166 175 176 180 201 205 211 215 191 183 179 178 179 178 186 209 173 136 128 120 84 68 62 61 56 54 51 51 50
120 118 123 126 126 133 146 154 165 161 161 171 170 171 169 174 181 188 198 199 200 198 190 190 192 189 186 190 194 203 207 214 192 154 146 115 55 54 54 52 52 48 48 46
148 148 147 146 150 153 163 173 175 178 175 177 178 178 187 189 188 187 202 200 217 216 206 199 202 196 204 213 213 217 230 235 237 232 226 209 276 32 47 43 40 43 44 44
162 166 169 164 155 163 171 179 184 185 186 187 190 197 201 200 203 209 204 204 205 208 217 215 210 205 215 224 222 229 241 245 239 235 234 237 247 267 311 22 14 25 34 33
162 162 169 172 174 185 183 179 187 186 194 198 207 213 213 213 217 212 207 211 218 213 221 215 213 217 228 233 234 240 248 243 241 245 246 251 256 264 273 287 314 337 1 15
163 178 191 202 205 199 197 191 191 195 199 212 222 219 213 208 218 222 218 214 225 222 224 222 220 223 233 238 238 242 247 243 240 247 256 263 266 267 268 272 277 290 297 327
169 249 232 222 229 224 216 212 208 215 217 223 229 221 218 211 213 228 229 230 223 221 227 231 231 232 240 242 239 242 247 249 250 252 258 266 270 270 271 271 268 272 274 284